Date String (YYYY-MM-DD hh:mm:ss) UTC,Instrument flags,Ambient pressure (hPa),Sample flow (lpm),Bypass flow (lpm),Sample temperature (°C),Ambient temperature (°C),ASC tube jacket temperature (°C),LED temperature (°C),Box temperature (°C),Sample RH (%),Span deviation,Mass concentration (μg/m³),Mass concentration (μg/m³),Mass concentration (μg/m³)
DateTimeUTC,F1_M11,P_M11,Q1_M11,Q2_M11,T1_M11,T2_M11,T3_M11,T4_M11,T5_M11,U1_M11,ZSPAN_M11,X0_M11,X2_M11,X1_M11
2022-01-13 18:00:00,,0830.9,5.01,0.00,28.8,28.1,00.0,37.6,30.7,09.1,0000.0,0000.05,0000.01,0000.00
2022-01-13 18:01:00,,0830.9,4.98,0.00,28.9,28.2,00.0,37.6,30.7,09.0,0000.0,0000.02,0000.01,0000.00
2022-01-13 18:02:00,,0830.8,5.01,0.00,28.9,28.2,00.0,37.6,30.7,09.0,0000.0,0000.00,0000.00,0000.00
2022-01-13 18:03:00,,0830.8,5.00,0.00,28.9,28.2,00.0,37.7,30.8,08.9,0000.0,0001.32,0000.00,0000.00
2022-01-13 18:04:00,,0830.8,5.00,0.00,28.9,28.3,00.0,37.7,30.8,09.0,0000.0,0001.66,0000.00,0000.00
2022-01-13 18:05:00,,0830.7,5.01,0.00,29.0,28.3,00.0,37.7,30.8,09.0,0000.0,0001.66,0000.00,0000.00
2022-01-13 18:06:00,,0830.7,5.00,0.00,29.0,28.3,00.0,37.7,30.8,09.1,0000.0,0001.69,0000.01,0000.00
2022-01-13 18:07:00,,0830.7,4.99,0.00,29.0,28.4,00.0,37.7,30.8,09.0,0000.0,0001.70,0000.01,0000.00
2022-01-13 18:08:00,,0830.7,5.02,0.00,29.0,28.4,00.0,37.8,30.9,09.1,0000.0,0001.70,0000.01,0000.00
2022-01-13 18:09:00,,0830.8,4.99,0.00,29.1,28.4,00.0,37.8,30.9,08.9,0000.0,0001.73,0000.02,0000.00
2022-01-13 18:10:00,,0830.7,5.01,0.00,29.1,28.4,00.0,37.8,30.9,09.0,0000.0,0001.79,0000.03,0000.00
2022-01-13 18:11:00,,0830.7,4.99,0.00,29.1,28.4,00.0,37.9,30.9,09.0,0000.0,0001.79,0000.03,0000.00
2022-01-13 18:12:00,,0830.6,5.01,0.00,29.1,28.5,00.0,37.9,31.0,09.0,0000.0,0001.81,0000.03,0000.00
2022-01-13 18:13:00,,0830.6,5.00,0.00,29.2,28.5,00.0,37.9,31.0,08.9,0000.0,0001.83,0000.04,0000.00
2022-01-13 18:14:00,,0830.6,5.00,0.00,29.2,28.5,00.0,37.9,31.0,09.1,0000.0,0000.43,0000.04,0000.01
2022-01-13 18:15:00,,0830.6,5.00,0.00,29.2,28.5,00.0,37.9,31.0,09.2,0000.0,0000.17,0000.04,0000.00
2022-01-13 18:16:00,,0830.5,5.00,0.00,29.2,28.6,00.0,38.0,31.1,09.2,0000.0,0000.17,0000.04,0000.00
2022-01-13 18:17:00,,0830.5,5.00,0.00,29.3,28.6,00.0,38.0,31.1,09.3,0000.0,0000.14,0000.03,0000.00
2022-01-13 18:18:00,,0830.6,5.01,0.00,29.3,28.6,00.0,38.0,31.1,09.5,0000.0,0000.13,0000.03,0000.00
2022-01-13 18:19:00,,0830.5,5.01,0.00,29.3,28.7,00.0,38.0,31.1,09.8,0000.0,0000.13,0000.03,0000.00
2022-01-13 18:20:00,,0830.4,5.01,0.00,29.3,28.7,00.0,38.1,31.2,09.8,0000.0,0000.12,0000.03,0000.00
2022-01-13 18:21:00,,0830.4,4.99,0.00,29.4,28.7,00.0,38.1,31.2,09.6,0000.0,0000.09,0000.02,0000.00
2022-01-13 18:22:00,,0830.4,5.01,0.00,29.4,28.7,00.0,38.1,31.2,09.7,0000.0,0000.27,0000.02,0000.00
2022-01-13 18:23:00,,0830.4,5.00,0.00,29.4,28.7,00.0,38.1,31.2,09.8,0000.0,0000.26,0000.02,0000.00
2022-01-13 18:24:00,,0830.3,5.00,0.00,29.4,28.8,00.0,38.2,31.2,09.7,0000.0,0000.35,0000.01,0000.00
2022-01-13 18:25:00,,0830.3,5.00,0.00,29.4,28.8,00.0,38.2,31.3,09.8,0000.0,0000.47,0000.01,0000.00
2022-01-13 18:26:00,,0830.2,5.01,0.00,29.5,28.8,00.0,38.2,31.3,09.7,0000.0,0000.47,0000.01,0000.00
2022-01-13 18:27:00,,0830.2,5.00,0.00,29.5,28.8,00.0,38.2,31.3,09.8,0000.0,0000.47,0000.01,0000.00
2022-01-13 18:28:00,,0830.2,4.99,0.00,29.5,28.8,00.0,38.3,31.3,09.9,0000.0,0000.48,0000.02,0000.00
2022-01-13 18:29:00,,0830.2,5.01,0.00,29.5,28.8,00.0,38.3,31.3,09.7,0000.0,0000.51,0000.03,0000.00
2022-01-13 18:30:00,,0830.2,4.99,0.00,29.5,28.9,00.0,38.3,31.4,09.6,0000.0,0000.51,0000.03,0000.00
2022-01-13 18:31:00,,0830.1,5.01,0.00,29.6,28.9,00.0,38.3,31.4,09.6,0000.0,0000.51,0000.03,0000.00
2022-01-13 18:32:00,,0830.2,5.00,0.00,29.6,28.9,00.0,38.4,31.4,09.4,0000.0,0000.68,0000.03,0000.00
2022-01-13 18:33:00,,0830.1,4.99,0.00,29.6,28.9,00.0,38.4,31.4,09.6,0000.0,0000.51,0000.03,0000.00
2022-01-13 18:34:00,,0830.1,5.02,0.00,29.6,28.9,00.0,38.4,31.4,09.7,0000.0,0000.51,0000.03,0000.00
2022-01-13 18:35:00,,0830.0,4.99,0.00,29.7,29.0,00.0,38.4,31.4,09.5,0000.0,0000.38,0000.03,0000.00
2022-01-13 18:36:00,,0830.0,5.00,0.00,29.7,29.0,00.0,38.4,31.5,09.7,0000.0,0000.28,0000.02,0000.00
2022-01-13 18:37:00,,0830.0,5.01,0.00,29.7,29.0,00.0,38.5,31.5,09.6,0000.0,0000.28,0000.02,0000.00
2022-01-13 18:38:00,,0830.0,4.98,0.00,29.7,29.0,00.0,38.5,31.5,09.5,0000.0,0000.28,0000.02,0000.00
2022-01-13 18:39:00,,0830.0,5.01,0.00,29.7,29.0,00.0,38.5,31.5,09.4,0000.0,0000.26,0000.02,0000.00
2022-01-13 18:40:00,,0830.1,5.00,0.00,29.8,29.0,00.0,38.5,31.5,09.5,0000.0,0000.24,0000.01,0000.00
2022-01-13 18:41:00,,0830.0,5.00,0.00,29.8,29.0,00.0,38.5,31.6,09.2,0000.0,0000.24,0000.01,0000.00
2022-01-13 18:42:00,,0830.0,5.00,0.00,29.8,29.1,00.0,38.6,31.6,09.4,0000.0,0000.22,0000.01,0000.00
2022-01-13 18:43:00,,0830.0,5.01,0.00,29.8,29.1,00.0,38.6,31.6,09.3,0000.0,0000.01,0000.00,0000.00
2022-01-13 18:44:00,,0830.0,4.99,0.00,29.8,29.1,00.0,38.6,31.6,09.2,0000.0,0000.01,0000.00,0000.00
2022-01-13 18:45:00,,0830.0,5.02,0.00,29.8,29.1,00.0,38.6,31.7,09.4,0000.0,0000.03,0000.01,0000.00
2022-01-13 18:46:00,,0829.9,4.99,0.00,29.9,29.2,00.0,38.7,31.7,09.4,0000.0,0000.05,0000.02,0000.00
2022-01-13 18:47:00,,0829.9,5.00,0.00,29.9,29.2,00.0,38.7,31.7,09.5,0000.0,0000.32,0000.02,0000.01
2022-01-13 18:48:00,,0829.9,5.00,0.00,29.9,29.2,00.0,38.7,31.7,09.8,0000.0,0000.46,0000.02,0000.01
2022-01-13 18:49:00,,0829.8,5.00,0.00,29.9,29.2,00.0,38.7,31.7,09.6,0000.0,0000.46,0000.02,0000.01
2022-01-13 18:50:00,,0829.8,5.01,0.00,29.9,29.3,00.0,38.7,31.7,09.4,0000.0,0000.46,0000.02,0000.01
2022-01-13 18:51:00,,0829.8,5.01,0.00,29.9,29.3,00.0,38.8,31.7,09.6,0000.0,0000.49,0000.03,0000.00
2022-01-13 18:52:00,,0829.8,4.99,0.00,30.0,29.3,00.0,38.8,31.7,09.6,0000.0,0000.59,0000.05,0000.00
2022-01-13 18:53:00,,0829.7,5.01,0.00,30.0,29.3,00.0,38.8,31.8,09.6,0000.0,0000.59,0000.05,0000.01
2022-01-13 18:54:00,,0829.8,5.00,0.00,30.0,29.3,00.0,38.8,31.8,09.6,0000.0,0000.59,0000.05,0000.01
2022-01-13 18:55:00,,0829.8,5.01,0.00,30.0,29.4,00.0,38.8,31.8,09.7,0000.0,0000.59,0000.05,0000.01
2022-01-13 18:56:00,,0829.8,4.99,0.00,30.0,29.4,00.0,38.8,31.8,09.8,0000.0,0000.57,0000.05,0000.01
2022-01-13 18:57:00,,0829.7,5.01,0.00,30.0,29.4,00.0,38.9,31.8,09.6,0000.0,0000.54,0000.04,0000.00
2022-01-13 18:58:00,,0829.7,4.98,0.00,30.1,29.4,00.0,38.9,31.9,09.6,0000.0,0000.31,0000.04,0000.00
2022-01-13 18:59:00,,0829.7,5.01,0.00,30.1,29.4,00.0,38.9,31.9,09.6,0000.0,0000.31,0000.03,0000.00
